Wautoma, WI

11:54 PM CDT on August 25, 2016 (GMT -0500)
Wautoma

Weather History for KY50 - February, 2013

Change the Weather History Date:

Wednesday, February 27, 2013

  Actual Average (KPCZ) Record (KPCZ)
Temperature  
Mean Temperature 29 °F -  
Max Temperature 32 °F 36 °F 58 °F (2016)
Min Temperature 26 °F 16 °F -15 °F (2014)
Degree Days  
Heating Degree Days 36    
Moisture  
Dew Point 26 °F    
Average Humidity 86    
Maximum Humidity 93    
Minimum Humidity 72    
Precipitation  
Precipitation 0.00 in - - ()
Sea Level Pressure  
Sea Level Pressure 29.72 in    
Wind  
Wind Speed 5 mph (North)    
Max Wind Speed 13 mph    
Max Gust Speed 22 mph    
Visibility 5 miles    
Events Snow    
Averages and records for this station are not official NWS values.
T = Trace of Precipitation, MM = Missing Value Source: NWS Daily Summary

Daily Weather History Graph

Daily Weather History Graph

Search for Another Location

Airport or City:

Trip Planner

Search our weather history database for the weather conditions in past years. The results will help you decide how hot, cold, wet, or windy it might be!

Date:

Astronomy

Feb. 27, 2013 Rise Set
Actual Time 6:37 AM CST 5:43 PM CST
Civil Twilight 6:08 AM CST 6:12 PM CST
Nautical Twilight 5:34 AM CST 6:45 PM CST
Astronomical Twilight 5:01 AM CST 7:19 PM CST
Moon 8:11 PM CST (2/27) 7:06 AM CST (2/27)
Length of Visible Light 12h 04m
Length of Day
11h 06m
Waning Gibbous, 96% of the Moon is Illuminated
Feb 27
Waning Gibbous
Mar 4
Last Quarter
Mar 11
New
Mar 19
First Quarter
Mar 27
Full

Hourly Weather History & Observations

Time (CST) Temp. Windchill Dew Point Humidity Pressure Visibility Wind Dir Wind Speed Gust Speed Precip Events Conditions
12:56 AM 28.0 °F 17.5 °F 21.0 °F 75% 29.73 in 10.0 mi NNE 12.7 mph 21.9 mph N/A   Overcast
1:56 AM 29.1 °F - 21.0 °F 72% 29.73 in 10.0 mi Calm Calm - N/A   Overcast
2:29 AM 28.4 °F 23.3 °F 21.2 °F 74% 29.70 in 2.5 mi NNE 4.6 mph - 0.00 in Snow Light Snow
2:43 AM 28.4 °F 20.4 °F 23.0 °F 80% 29.69 in 3.0 mi NNE 8.1 mph - 0.00 in Snow Light Snow
2:56 AM 28.4 °F 19.1 °F 23.0 °F 80% 29.69 in 2.0 mi NNE 10.4 mph 18.4 mph N/A Snow Light Snow
3:36 AM 26.6 °F 22.6 °F 24.8 °F 93% 29.68 in 3.0 mi North 3.5 mph - 0.00 in Snow Light Snow
3:46 AM 26.6 °F - 24.8 °F 93% 29.68 in 1.8 mi Calm Calm - 0.00 in Snow Light Snow
3:56 AM 27.1 °F 18.9 °F 24.1 °F 88% 29.70 in 1.5 mi North 8.1 mph - 0.00 in Snow Light Snow
4:09 AM 26.6 °F - 24.8 °F 93% 29.68 in 1.2 mi Calm Calm - 0.00 in Snow Light Snow
4:18 AM 26.6 °F - 24.8 °F 93% 29.68 in 1.5 mi Calm Calm - 0.00 in Snow Light Snow
4:43 AM 26.6 °F - 24.8 °F 93% 29.68 in 1.2 mi Calm Calm - 0.00 in Snow Light Snow
4:56 AM 27.1 °F - 25.2 °F 92% 29.70 in 1.0 mi Calm Calm - 0.00 in Snow Light Snow
5:03 AM 26.6 °F - 24.8 °F 93% 29.68 in 1.2 mi Calm Calm - 0.00 in Snow Light Snow
5:22 AM 26.6 °F - 24.8 °F 93% 29.68 in 1.5 mi Calm Calm - 0.00 in Snow Light Snow
5:36 AM 26.6 °F - 24.8 °F 93% 29.68 in 2.0 mi Calm Calm - 0.00 in Snow Light Snow
5:56 AM 26.6 °F - 24.8 °F 93% 29.68 in 2.5 mi Calm Calm - N/A Snow Light Snow
6:05 AM 26.6 °F 22.6 °F 24.8 °F 93% 29.67 in 3.0 mi North 3.5 mph - 0.00 in Snow Light Snow
6:56 AM 28.0 °F - 24.1 °F 85% 29.70 in 5.0 mi Calm Calm - 0.00 in Snow Light Snow
7:56 AM 29.1 °F 20.6 °F 24.1 °F 81% 29.70 in 10.0 mi NNE 9.2 mph 17.3 mph 0.00 in   Overcast
8:28 AM 28.4 °F - 24.8 °F 86% 29.69 in 3.0 mi Calm Calm - 0.00 in   Overcast
8:56 AM 30.2 °F 26.7 °F 24.8 °F 80% 29.69 in 10.0 mi NNE 3.5 mph - N/A   Overcast
9:56 AM 31.1 °F - 24.1 °F 75% 29.71 in 10.0 mi Calm Calm - 0.00 in   Overcast
10:56 AM 31.1 °F 22.4 °F 24.1 °F 75% 29.71 in 10.0 mi NNE 10.4 mph - N/A   Overcast
11:56 AM 30.2 °F 23.4 °F 24.8 °F 80% 29.69 in 10.0 mi NNE 6.9 mph 17.3 mph N/A   Overcast
12:56 PM 31.1 °F 23.1 °F 26.1 °F 82% 29.71 in 10.0 mi North 9.2 mph - 0.00 in   Overcast
1:27 PM 32.0 °F 23.6 °F 26.6 °F 80% 29.68 in 3.0 mi North 10.4 mph 17.3 mph 0.00 in Snow Light Snow
1:56 PM 32.0 °F 24.8 °F 27.1 °F 82% 29.71 in 2.0 mi NNE 8.1 mph - 0.00 in Snow Light Snow
2:12 PM 32.0 °F 25.6 °F 26.6 °F 80% 29.69 in 3.0 mi North 6.9 mph - 0.00 in   Overcast
2:56 PM 32.0 °F 27.5 °F 26.6 °F 80% 29.70 in 10.0 mi North 4.6 mph - N/A   Overcast
3:56 PM 32.0 °F 24.8 °F 27.1 °F 82% 29.74 in 5.0 mi North 8.1 mph - 0.00 in   Overcast
4:13 PM 30.2 °F - 28.4 °F 93% 29.72 in 2.5 mi Calm Calm - 0.00 in   Overcast
4:17 PM 30.2 °F - 28.4 °F 93% 29.72 in 3.0 mi Calm Calm - 0.00 in   Overcast
4:41 PM 30.2 °F 25.4 °F 28.4 °F 93% 29.73 in 2.5 mi North 4.6 mph - 0.00 in   Overcast
4:47 PM 30.2 °F 24.3 °F 28.4 °F 93% 29.73 in 5.0 mi North 5.8 mph - 0.00 in   Overcast
4:56 PM 31.1 °F 25.4 °F 27.1 °F 85% 29.76 in 10.0 mi North 5.8 mph - 0.00 in   Overcast
5:43 PM 30.2 °F 25.4 °F 26.6 °F 86% 29.75 in 10.0 mi North 4.6 mph - 0.00 in   Overcast
5:56 PM 30.2 °F - 26.6 °F 86% 29.76 in 8.0 mi Calm Calm - N/A   Overcast
6:08 PM 30.2 °F 24.3 °F 28.4 °F 93% 29.76 in 4.0 mi North 5.8 mph - 0.00 in Snow Light Snow
6:15 PM 30.2 °F 24.3 °F 28.4 °F 93% 29.76 in 2.0 mi NNW 5.8 mph - 0.00 in Snow Light Snow
6:25 PM 30.2 °F 24.3 °F 28.4 °F 93% 29.77 in 2.0 mi NNW 5.8 mph - 0.00 in Snow Light Snow
6:46 PM 30.2 °F - 28.4 °F 93% 29.77 in 2.5 mi Calm Calm - 0.00 in Snow Light Snow
6:56 PM 31.1 °F 25.4 °F 29.1 °F 92% 29.80 in 5.0 mi North 5.8 mph - 0.00 in Snow Light Snow
7:26 PM 30.2 °F 24.3 °F 28.4 °F 93% 29.78 in 6.0 mi North 5.8 mph - 0.00 in Snow Light Snow
8:56 PM 31.1 °F 23.7 °F 26.1 °F 82% 29.82 in 10.0 mi North 8.1 mph - 0.00 in   Overcast
9:56 PM 31.1 °F 23.7 °F 26.1 °F 82% 29.83 in 10.0 mi North 8.1 mph - 0.00 in   Overcast
10:56 PM 31.1 °F 23.1 °F 27.1 °F 85% 29.84 in 7.0 mi North 9.2 mph - 0.00 in   Overcast